Location: *
(48.7358°N, 0.3111°E)
Time: 23:31:51
(UTC+00:00)

SJ-12 - Pass Details

Date: 22 October 2019
Orbit: 569 x 585 km, 97.6° (Epoch: 16 November)

Event Time Altitude Azimuth Distance (km) Brightness Sun altitude
Rises 05:45:20 0° 9° (N) 2,796 7.4 -7.9°
Reaches altitude 10° 05:47:31 10° 5° (N) 1,895 6.5 -7.5°
Maximum altitude 05:51:31 55° 288° (WNW) 701 4.0 -6.9°
Drops below altitude 10° 05:55:32 10° 211° (SSW) 1,890 6.3 -6.2°
Sets 05:57:42 0° 207° (SSW) 2,786 7.2 -5.9°
